TimeEDT,TemperatureF,Dew PointF,Humidity,Sea Level PressureIn,VisibilityMPH,Wind Direction,Wind SpeedMPH,Gust SpeedMPH,PrecipitationIn,Events,Conditions,WindDirDegrees,DateUTC
12:08 AM,68.0,68.0,100,29.96,0.5,NNE,4.6,-,N/A,Fog,Fog,20,2012-10-03 04:08:00
12:16 AM,68.0,68.0,100,29.96,0.5,North,3.5,-,N/A,Fog,Fog,360,2012-10-03 04:16:00
12:27 AM,68.0,66.2,94,29.96,0.5,North,4.6,-,N/A,Fog,Fog,360,2012-10-03 04:27:00
12:55 AM,67.6,66.6,96,29.96,0.5,North,4.6,-,N/A,Fog,Fog,10,2012-10-03 04:55:00
12:58 AM,68.0,66.2,94,29.96,0.5,NNE,3.5,-,N/A,Fog,Fog,30,2012-10-03 04:58:00
1:12 AM,68.0,66.2,94,29.96,0.5,NNE,3.5,-,N/A,Fog,Fog,30,2012-10-03 05:12:00
1:24 AM,68.0,66.2,94,29.96,0.2,North,4.6,-,N/A,Fog,Fog,350,2012-10-03 05:24:00
1:30 AM,68.0,66.2,94,29.96,0.5,North,4.6,-,N/A,Fog,Fog,10,2012-10-03 05:30:00
1:46 AM,68.0,66.2,94,29.96,0.2,NNW,3.5,-,N/A,Fog,Fog,330,2012-10-03 05:46:00
1:55 AM,67.3,65.3,93,29.96,0.2,NNW,5.8,-,N/A,Fog,Fog,340,2012-10-03 05:55:00
2:42 AM,66.2,64.4,94,29.96,0.5,North,3.5,-,N/A,Fog,Fog,360,2012-10-03 06:42:00
2:51 AM,66.2,64.4,94,29.96,0.2,North,3.5,-,N/A,Fog,Fog,360,2012-10-03 06:51:00
2:55 AM,66.7,64.6,93,29.96,0.2,North,3.5,-,N/A,Fog,Fog,350,2012-10-03 06:55:00
3:02 AM,66.2,64.4,94,29.96,0.2,NE,3.5,-,N/A,Fog,Fog,50,2012-10-03 07:02:00
3:03 AM,66.2,64.4,94,29.96,0.5,NE,3.5,-,N/A,Fog,Fog,50,2012-10-03 07:03:00
3:15 AM,66.2,64.4,94,29.96,0.5,ENE,4.6,-,N/A,Fog,Fog,60,2012-10-03 07:15:00
3:28 AM,66.2,64.4,94,29.97,0.5,Calm,Calm,-,N/A,Fog,Fog,0,2012-10-03 07:28:00
3:40 AM,66.2,64.4,94,29.98,0.5,NW,5.8,-,N/A,Fog,Fog,320,2012-10-03 07:40:00
3:48 AM,66.2,64.4,94,29.97,0.8,NNW,3.5,-,N/A,,Mist,340,2012-10-03 07:48:00
3:50 AM,66.2,64.4,94,29.97,0.8,North,3.5,-,N/A,,Mist,350,2012-10-03 07:50:00
3:52 AM,66.2,64.4,94,29.97,1.0,North,3.5,-,N/A,,Mist,10,2012-10-03 07:52:00
3:55 AM,66.6,64.4,93,29.97,1.0,North,4.6,-,N/A,,Mist,360,2012-10-03 07:55:00
4:03 AM,66.2,64.4,94,29.97,1.0,NNW,4.6,-,N/A,,Mist,340,2012-10-03 08:03:00
4:06 AM,66.2,64.4,94,29.97,0.8,NNW,5.8,-,N/A,,Mist,340,2012-10-03 08:06:00
4:11 AM,66.2,64.4,94,29.98,0.8,North,5.8,-,N/A,,Mist,10,2012-10-03 08:11:00
4:13 AM,66.2,64.4,94,29.98,1.0,North,5.8,-,N/A,,Mist,360,2012-10-03 08:13:00
4:15 AM,66.2,64.4,94,29.98,1.2,North,5.8,-,N/A,,Overcast,10,2012-10-03 08:15:00
4:17 AM,66.2,64.4,94,29.98,1.5,North,4.6,-,N/A,,Overcast,10,2012-10-03 08:17:00
4:18 AM,66.2,64.4,94,29.98,1.8,North,4.6,-,N/A,,Overcast,10,2012-10-03 08:18:00
4:19 AM,66.2,64.4,94,29.98,2.0,North,4.6,-,N/A,,Overcast,10,2012-10-03 08:19:00
4:22 AM,66.2,64.4,94,29.98,3.0,NNE,3.5,-,N/A,,Overcast,20,2012-10-03 08:22:00
4:36 AM,66.2,64.4,94,29.98,4.0,NNE,3.5,-,N/A,,Overcast,20,2012-10-03 08:36:00
4:55 AM,66.2,64.8,95,29.98,5.0,Calm,Calm,-,N/A,,Overcast,0,2012-10-03 08:55:00
5:17 AM,66.2,64.4,94,29.99,5.0,Calm,Calm,-,N/A,,Overcast,0,2012-10-03 09:17:00
5:20 AM,66.2,64.4,94,29.99,5.0,Calm,Calm,-,N/A,,Overcast,0,2012-10-03 09:20:00
5:27 AM,66.2,64.4,94,29.99,5.0,Calm,Calm,-,N/A,,Overcast,0,2012-10-03 09:27:00
5:41 AM,66.2,64.4,94,29.99,3.0,Calm,Calm,-,N/A,,Overcast,0,2012-10-03 09:41:00
5:44 AM,66.2,64.4,94,29.99,2.5,Calm,Calm,-,N/A,,Overcast,0,2012-10-03 09:44:00
5:48 AM,66.2,64.4,94,29.99,2.0,Calm,Calm,-,N/A,,Overcast,0,2012-10-03 09:48:00
5:49 AM,66.2,64.4,94,29.99,1.8,Calm,Calm,-,N/A,,Overcast,0,2012-10-03 09:49:00
5:51 AM,66.2,64.4,94,29.99,1.5,Calm,Calm,-,N/A,,Overcast,0,2012-10-03 09:51:00
5:54 AM,66.2,64.4,94,29.99,1.2,Calm,Calm,-,N/A,,Overcast,0,2012-10-03 09:54:00
5:55 AM,66.2,64.9,96,29.99,1.2,Calm,Calm,-,N/A,,Overcast,0,2012-10-03 09:55:00
5:57 AM,66.2,64.4,94,29.99,1.0,Calm,Calm,-,N/A,,Mist,0,2012-10-03 09:57:00
6:00 AM,66.2,64.4,94,29.99,1.0,Calm,Calm,-,N/A,,Mist,0,2012-10-03 10:00:00
6:05 AM,66.2,64.4,94,30.00,0.8,Calm,Calm,-,N/A,,Mist,0,2012-10-03 10:05:00
6:08 AM,66.2,64.4,94,30.00,1.0,Calm,Calm,-,N/A,,Mist,0,2012-10-03 10:08:00
6:17 AM,66.2,64.4,94,30.00,0.8,Calm,Calm,-,N/A,,Mist,0,2012-10-03 10:17:00
6:21 AM,66.2,64.4,94,30.01,0.8,Calm,Calm,-,N/A,,Mist,0,2012-10-03 10:21:00
6:23 AM,66.2,64.4,94,30.01,0.8,Calm,Calm,-,N/A,,Mist,0,2012-10-03 10:23:00
6:30 AM,66.2,64.4,94,30.01,1.0,Calm,Calm,-,N/A,,Mist,0,2012-10-03 10:30:00
6:32 AM,66.2,64.4,94,30.01,0.8,Calm,Calm,-,N/A,,Mist,0,2012-10-03 10:32:00
6:39 AM,66.2,64.4,94,30.01,0.8,Calm,Calm,-,N/A,,Mist,0,2012-10-03 10:39:00
6:41 AM,66.2,64.4,94,30.01,0.5,Calm,Calm,-,N/A,Fog,Fog,0,2012-10-03 10:41:00
6:53 AM,66.2,64.4,94,30.01,0.2,Calm,Calm,-,N/A,Fog,Fog,0,2012-10-03 10:53:00
6:55 AM,66.6,65.1,95,30.01,0.2,Calm,Calm,-,N/A,Fog,Fog,0,2012-10-03 10:55:00
7:10 AM,66.2,64.4,94,30.01,0.2,North,3.5,-,N/A,Fog,Fog,10,2012-10-03 11:10:00
7:11 AM,66.2,64.4,94,30.01,0.2,North,3.5,-,N/A,Fog,Fog,10,2012-10-03 11:11:00
7:55 AM,66.7,64.9,94,30.02,0.2,NE,4.6,-,N/A,Fog,Fog,50,2012-10-03 11:55:00
8:41 AM,68.0,66.2,94,30.03,0.2,Calm,Calm,-,N/A,Fog,Fog,0,2012-10-03 12:41:00
8:53 AM,68.0,66.2,94,30.04,0.2,Calm,Calm,-,N/A,Fog,Fog,0,2012-10-03 12:53:00
8:55 AM,68.0,66.4,95,30.04,0.2,Calm,Calm,-,N/A,Fog,Fog,0,2012-10-03 12:55:00
8:59 AM,68.0,66.2,94,30.04,0.2,Calm,Calm,-,N/A,Fog,Fog,0,2012-10-03 12:59:00
9:00 AM,68.0,66.2,94,30.04,0.2,Calm,Calm,-,N/A,Fog,Fog,0,2012-10-03 13:00:00
9:03 AM,68.0,66.2,94,30.04,0.5,Calm,Calm,-,N/A,Fog,Fog,0,2012-10-03 13:03:00
9:34 AM,68.0,66.2,94,30.04,0.5,Calm,Calm,-,N/A,Fog,Fog,0,2012-10-03 13:34:00
9:37 AM,68.0,66.2,94,30.04,0.2,NE,3.5,-,N/A,Fog,Fog,50,2012-10-03 13:37:00
9:41 AM,68.0,68.0,100,30.04,0.2,NE,3.5,-,N/A,Fog,Fog,50,2012-10-03 13:41:00
9:44 AM,68.0,68.0,100,30.04,0.2,Calm,Calm,-,N/A,Fog,Fog,0,2012-10-03 13:44:00
9:55 AM,69.1,67.1,93,30.04,0.2,ENE,3.5,-,N/A,Fog,Fog,70,2012-10-03 13:55:00
9:56 AM,69.8,66.2,88,30.04,0.2,Calm,Calm,-,N/A,Fog,Fog,0,2012-10-03 13:56:00
10:00 AM,69.8,66.2,88,30.04,0.2,ENE,3.5,-,N/A,Fog,Fog,60,2012-10-03 14:00:00
10:10 AM,69.8,66.2,88,30.04,0.2,East,3.5,-,N/A,Fog,Fog,90,2012-10-03 14:10:00
10:21 AM,69.8,68.0,94,30.04,0.2,Calm,Calm,-,N/A,Fog-Rain,Light Rain,0,2012-10-03 14:21:00
10:22 AM,69.8,68.0,94,30.04,0.2,Variable,3.5,-,N/A,Fog-Rain,Light Rain,0,2012-10-03 14:22:00
10:23 AM,69.8,68.0,94,30.04,0.5,Variable,3.5,-,N/A,Fog-Rain,Light Rain,0,2012-10-03 14:23:00
10:24 AM,69.8,68.0,94,30.04,0.5,Variable,4.6,-,N/A,Fog-Rain,Light Rain,0,2012-10-03 14:24:00
10:30 AM,71.6,69.8,94,30.04,0.8,ESE,3.5,-,N/A,Rain,Light Rain,110,2012-10-03 14:30:00
10:31 AM,71.6,69.8,94,30.04,0.8,Calm,Calm,-,N/A,,Mist,0,2012-10-03 14:31:00
10:34 AM,71.6,69.8,94,30.04,0.5,East,3.5,-,N/A,Fog,Fog,100,2012-10-03 14:34:00
10:35 AM,71.6,69.8,94,30.04,0.5,East,3.5,-,N/A,Fog,Fog,100,2012-10-03 14:35:00
10:36 AM,71.6,69.8,94,30.04,0.5,ESE,3.5,-,N/A,Fog,Fog,110,2012-10-03 14:36:00
10:42 AM,71.6,69.8,94,30.04,0.5,Variable,3.5,-,N/A,Fog,Fog,0,2012-10-03 14:42:00
10:43 AM,71.6,69.8,94,30.04,0.5,ENE,3.5,-,N/A,Fog,Fog,70,2012-10-03 14:43:00
10:44 AM,71.6,69.8,94,30.04,0.8,Calm,Calm,-,N/A,,Mist,0,2012-10-03 14:44:00
10:53 AM,71.6,69.8,94,30.04,0.8,Calm,Calm,-,N/A,,Mist,0,2012-10-03 14:53:00
10:55 AM,72.0,70.7,96,30.04,0.8,East,3.5,-,0.00,,Mist,90,2012-10-03 14:55:00
10:59 AM,71.6,71.6,100,30.04,1.0,Calm,Calm,-,N/A,,Mist,0,2012-10-03 14:59:00
11:02 AM,71.6,71.6,100,30.04,1.2,Calm,Calm,-,N/A,,Overcast,0,2012-10-03 15:02:00
11:03 AM,71.6,71.6,100,30.04,1.5,Calm,Calm,-,N/A,,Overcast,0,2012-10-03 15:03:00
11:05 AM,73.4,71.6,94,30.04,1.8,Calm,Calm,-,N/A,,Overcast,0,2012-10-03 15:05:00
11:07 AM,73.4,71.6,94,30.04,2.0,Calm,Calm,-,N/A,,Overcast,0,2012-10-03 15:07:00
11:17 AM,73.4,71.6,94,30.05,3.0,Calm,Calm,-,N/A,,Overcast,0,2012-10-03 15:17:00
11:50 AM,73.4,73.4,100,30.05,8.0,Calm,Calm,-,N/A,,Overcast,0,2012-10-03 15:50:00
11:55 AM,73.9,73.4,98,30.05,9.0,SSW,3.5,-,N/A,,Overcast,200,2012-10-03 15:55:00
12:01 PM,73.4,73.4,100,30.04,8.0,Calm,Calm,-,N/A,Rain,Light Rain,0,2012-10-03 16:01:00
12:04 PM,75.2,73.4,94,30.04,9.0,Calm,Calm,-,N/A,Rain,Light Rain,0,2012-10-03 16:04:00
12:11 PM,75.2,75.2,100,30.04,10.0,Calm,Calm,-,N/A,,Overcast,0,2012-10-03 16:11:00
12:13 PM,75.2,75.2,100,30.04,10.0,Calm,Calm,-,N/A,,Mostly Cloudy,0,2012-10-03 16:13:00
12:19 PM,77.0,75.2,94,30.04,10.0,Calm,Calm,-,N/A,Rain,Light Rain,0,2012-10-03 16:19:00
12:24 PM,77.0,77.0,100,30.04,10.0,West,3.5,-,N/A,,Mostly Cloudy,280,2012-10-03 16:24:00
12:26 PM,77.0,77.0,100,30.04,10.0,Calm,Calm,-,N/A,,Mostly Cloudy,0,2012-10-03 16:26:00
12:54 PM,77.0,75.2,94,30.04,10.0,West,4.6,-,N/A,,Mostly Cloudy,270,2012-10-03 16:54:00
12:55 PM,77.7,74.8,91,30.04,10.0,West,4.6,-,0.00,,Mostly Cloudy,260,2012-10-03 16:55:00
12:58 PM,78.8,75.2,89,30.04,10.0,West,6.9,-,N/A,,Mostly Cloudy,260,2012-10-03 16:58:00
1:09 PM,78.8,75.2,89,30.03,10.0,Variable,4.6,-,N/A,,Scattered Clouds,0,2012-10-03 17:09:00
1:10 PM,78.8,75.2,89,30.03,10.0,NW,4.6,-,N/A,,Mostly Cloudy,310,2012-10-03 17:10:00
1:12 PM,78.8,75.2,89,30.03,10.0,NW,4.6,-,N/A,,Mostly Cloudy,320,2012-10-03 17:12:00
1:15 PM,78.8,75.2,89,30.03,10.0,NW,3.5,-,N/A,,Mostly Cloudy,320,2012-10-03 17:15:00
1:23 PM,77.0,75.2,94,30.03,10.0,NNW,3.5,-,N/A,,Mostly Cloudy,330,2012-10-03 17:23:00
1:26 PM,78.8,75.2,89,30.03,10.0,Calm,Calm,-,N/A,,Mostly Cloudy,0,2012-10-03 17:26:00
1:44 PM,77.0,75.2,94,30.03,10.0,East,3.5,-,N/A,,Overcast,80,2012-10-03 17:44:00
1:49 PM,77.0,75.2,94,30.03,10.0,Calm,Calm,-,N/A,Rain,Light Rain,0,2012-10-03 17:49:00
1:55 PM,76.6,74.7,94,30.03,10.0,Calm,Calm,-,0.00,Rain,Light Rain,0,2012-10-03 17:55:00
1:56 PM,77.0,75.2,94,30.03,10.0,Calm,Calm,-,N/A,Rain,Light Rain,0,2012-10-03 17:56:00
2:00 PM,77.0,75.2,94,30.03,10.0,East,3.5,-,N/A,Rain,Light Rain,80,2012-10-03 18:00:00
2:03 PM,77.0,75.2,94,30.02,10.0,East,3.5,-,N/A,Rain,Light Rain,80,2012-10-03 18:03:00
2:13 PM,77.0,75.2,94,30.02,10.0,NE,3.5,-,N/A,,Mostly Cloudy,50,2012-10-03 18:13:00
2:16 PM,77.0,75.2,94,30.02,10.0,Calm,Calm,-,N/A,,Mostly Cloudy,0,2012-10-03 18:16:00
2:21 PM,78.8,75.2,89,30.02,10.0,North,3.5,-,N/A,,Mostly Cloudy,10,2012-10-03 18:21:00
2:23 PM,78.8,75.2,89,30.02,10.0,Variable,3.5,-,N/A,,Mostly Cloudy,0,2012-10-03 18:23:00
2:25 PM,78.8,75.2,89,30.02,10.0,North,4.6,-,N/A,,Mostly Cloudy,360,2012-10-03 18:25:00
2:28 PM,78.8,75.2,89,30.02,10.0,NNW,3.5,-,N/A,,Mostly Cloudy,340,2012-10-03 18:28:00
2:39 PM,78.8,75.2,89,30.03,10.0,North,4.6,-,N/A,,Mostly Cloudy,360,2012-10-03 18:39:00
2:40 PM,78.8,75.2,89,30.03,10.0,North,4.6,-,N/A,,Mostly Cloudy,350,2012-10-03 18:40:00
2:45 PM,78.8,75.2,89,30.03,10.0,North,4.6,-,N/A,,Mostly Cloudy,10,2012-10-03 18:45:00
2:55 PM,78.8,73.8,84,30.03,10.0,NNE,4.6,-,0.00,,Mostly Cloudy,20,2012-10-03 18:55:00
3:05 PM,80.6,75.2,84,30.02,10.0,North,5.8,-,N/A,,Scattered Clouds,10,2012-10-03 19:05:00
3:17 PM,78.8,75.2,89,30.02,10.0,North,5.8,-,N/A,,Mostly Cloudy,360,2012-10-03 19:17:00
3:24 PM,78.8,73.4,83,30.02,10.0,NE,4.6,-,N/A,,Mostly Cloudy,40,2012-10-03 19:24:00
3:28 PM,78.8,73.4,83,30.02,10.0,North,5.8,-,N/A,,Mostly Cloudy,350,2012-10-03 19:28:00
3:37 PM,78.8,73.4,83,30.02,10.0,Calm,Calm,-,N/A,,Mostly Cloudy,0,2012-10-03 19:37:00
3:48 PM,80.6,73.4,79,30.02,10.0,Calm,Calm,-,N/A,,Scattered Clouds,0,2012-10-03 19:48:00
3:55 PM,81.9,73.6,76,30.02,10.0,WNW,4.6,-,N/A,,Scattered Clouds,300,2012-10-03 19:55:00
4:55 PM,81.3,70.5,70,30.03,10.0,West,6.9,-,N/A,,Partly Cloudy,260,2012-10-03 20:55:00
5:55 PM,77.9,70.2,77,30.04,10.0,SSW,4.6,-,N/A,,Clear,210,2012-10-03 21:55:00
6:41 PM,75.2,69.8,83,30.05,10.0,Calm,Calm,-,N/A,Rain,Light Rain,0,2012-10-03 22:41:00
6:55 PM,75.2,71.2,87,30.05,10.0,Calm,Calm,-,0.00,Rain,Light Rain,0,2012-10-03 22:55:00
7:09 PM,75.2,71.6,89,30.06,10.0,Calm,Calm,-,N/A,,Clear,0,2012-10-03 23:09:00
7:55 PM,72.3,70.0,92,30.07,10.0,SSW,3.5,-,0.00,,Clear,200,2012-10-03 23:55:00
8:55 PM,72.9,70.0,91,30.09,10.0,West,5.8,-,N/A,,Clear,280,2012-10-04 00:55:00
9:13 PM,73.4,71.6,94,30.09,9.0,WNW,4.6,-,N/A,,Clear,300,2012-10-04 01:13:00
9:55 PM,72.5,71.6,97,30.10,8.0,WNW,4.6,-,N/A,,Clear,290,2012-10-04 01:55:00
10:45 PM,71.6,71.6,100,30.11,9.0,Calm,Calm,-,N/A,,Clear,0,2012-10-04 02:45:00
10:55 PM,71.4,70.5,97,30.11,10.0,WNW,4.6,-,N/A,,Scattered Clouds,290,2012-10-04 02:55:00
11:55 PM,70.7,68.2,92,30.11,10.0,Calm,Calm,-,N/A,,Clear,0,2012-10-04 03:55:00